Regional Weather Roundup
Issued by NWS

Home | Current Version | Previous Version | Text Only | Print | Product List | Glossary On
Versions: 1 2 3 4 5 6 7 8 9 10 11 12 13 14 15 16 17 18 19 20 21 22 23 24 25 26 27 28 29 30 31 32 33 34 35 36 37 38 39 40 41 42 43 44 45 46 47 48 49 50
000
ASUS43 KMKX 041721
RWRWI

WISCONSIN REGIONAL WEATHER ROUNDUP
NATIONAL WEATHER SERVICE MILWAUKEE/SULLIVAN WI
1100 AM CST SUN DEC 04 2016

NOTE: "FAIR" INDICATES FEW OR NO CLOUDS BELOW 12,000 FEET WITH NO
SIGNIFICANT WEATHER AND/OR OBSTRUCTIONS TO VISIBILITY.

WIZ001-002-006>008-014>016-023>028-041800-
NORTHWEST WISCONSIN

CITY           SKY/WX    TMP DP  RH WIND       PRES   REMARKS
SUPERIOR ARPT  LGT SNOW  32  31  94 S3        29.88F
ASHLAND        LGT SNOW  31  28  89 VRB6      29.93F FOG     WCI  25
HAYWARD        LGT SNOW  31  27  85 SE10      29.87F VSB 1   WCI  22
SIREN          CLOUDY    32  30  92 SE10      29.86F WCI  24
CUMBERLAND     LGT SNOW  32  28  86 SE10      29.87F WCI  24
RICE LAKE      LGT SNOW  31  30  94 SE10      29.90F WCI  23
CHETEK         LGT SNOW  31  30  96 SE12      29.90F VSB 3/4 WCI  22
LADYSMITH      LGT SNOW  31  30  94 SE7       29.92F VSB 1   WCI  25
EAU CLAIRE     SNOW      32  30  92 SE12      29.91F VSB 1/2 WCI  23
MENOMONIE      LGT SNOW  32  32  99 SE9       29.91F VSB 1   WCI  24
NEW RICHMOND   CLOUDY    32  31  97 SE8       29.87F FOG     WCI  25
OSCEOLA        MIX PCPN  33  33 100 SE9       29.90F WCI  25
$$

WIZ003>005-009-010-017-018-041800-
NORTH CENTRAL WISCONSIN

CITY           SKY/WX    TMP DP  RH WIND       PRES   REMARKS
MANITOWISH WTR LGT SNOW  28  28 100 SE8       29.92F WCI  20
ARBOR VITAE    LGT SNOW  31  29  91 SE7       29.93F WCI  24
WOODRUFF       LGT SNOW  31  29  91 SE7       29.93F WCI  24
RHINELANDER    LGT SNOW  29  27  92 SE8       29.94F VSB 1   WCI  21
EAGLE RIVER    LGT SNOW  28  25  89 S8        29.94F WCI  19
LAND O LAKES   LGT SNOW  28  26  89 S3        29.96F
PHILLIPS       LGT SNOW  28  27  96 SE8       29.90F WCI  20
TOMAHAWK       LGT SNOW  28  26  91 SE3       29.95F
MEDFORD        LGT SNOW  29  27  93 SE8       29.91F VSB 3/4 WCI  21
MERRILL        LGT SNOW  29  28  95 SE6       29.97F WCI  23
$$

WIZ029-030-035-036-043>047-041800-
CENTRAL WISCONSIN

CITY           SKY/WX    TMP DP  RH WIND       PRES   REMARKS
WAUSAU         LGT SNOW  29  27  92 SE12      29.95F VSB 1   WCI  19
MOSINEE        LGT SNOW  28  28 100 SE12      29.97F VSB 1   WCI  18
MARSHFIELD     SNOW      30  27  88 SE13      29.94F VSB 1/4 WCI  20
STEVENS POINT  MIX PCPN  29  28  99 SE7       29.99F VSB 1   WCI  22
WAUPACA        LGT SNOW  33  31  92 CALM      30.03F
WAUTOMA        LGT SNOW  31  29  92 S9        30.03F FOG     WCI  23
WISC RAPIDS    SNOW      31  30  96 S8        29.99F VSB 1/2 WCI  23
CAMP DOUGLAS   LGT SNOW  32  30  93 SE8       29.97F FOG     WCI  25
$$

WIZ011>013-019>022-031-037>040-048>050-041800-
NORTHEAST WISCONSIN

CITY           SKY/WX    TMP DP  RH WIND       PRES   REMARKS
ANTIGO         LGT SNOW  28  26  96 SE10      29.97F WCI  18
SHAWANO        MIX PCPN  32  30  92 SE3       30.04F
OCONTO         CLOUDY    31  29  92 S5        30.06F WCI  26
STURGEON BAY   LGT SNOW  30  28  93 S3        30.06F FOG
GREEN BAY      LGT SNOW  32  31  96 S6        30.05F VSB 1   WCI  26
MANITOWOC      LGT SNOW  34  28  80 S6        30.06F FOG     WCI  29
APPLETON       LGT SNOW  30  30 100 S9        30.02F WCI  22
CLINTONVILLE   LGT SNOW  32  30  93 S8        30.03F VSB 1   WCI  25
OSHKOSH        SNOW      31  28  89 SE8       30.02F VSB 1/2 WCI  23
$$

WIZ032>034-041-042-053>061-041800-
SOUTHWEST WISCONSIN

CITY           SKY/WX    TMP DP  RH WIND       PRES   REMARKS
LA CROSSE      LGT SNOW  34  32  92 S12       29.95F FOG     WCI  25
SPARTA         LGT SNOW  32  31  94 S6        29.97F WCI  26
VIROQUA        CLOUDY    31  30  97 SE14      29.94F VSB 3/4 WCI  21
BOSCOBEL       LGT SNOW  33  29  85 MISG      30.00F VSB 3/4
PRAIRIE DU CHI LGT SNOW  32  30  92 SE7       29.99F VSB 1   WCI  26
PLATTEVILLE    CLOUDY    31  31 100 SE10      30.00F WCI  22
$$

WIZ056-057-062-063-064-067-068-041800-
SOUTH CENTRAL WISCONSIN

CITY           SKY/WX    TMP DP  RH WIND       PRES   REMARKS
REEDSBURG      LGT SNOW  30  30 100 SE7       30.00F WCI  23
BARABOO/DELLS  LGT SNOW  30  29  95 SE8       30.00F WCI  23
LONE ROCK      LGT SNOW  31  29  92 SE8       30.02F VSB 3/4 WCI  23
MINERAL POINT  LGT SNOW  32  32 100 SE12      29.98F VSB 3/4 WCI  23
MADISON        SNOW      30  29  96 S10       30.01F VSB 1/2 WCI  21
MIDDLETON      CLOUDY    32  32 100 S8        30.03F WCI  25
WATERTOWN      LGT SNOW  31  31 100 SE6       30.04F WCI  25
MONROE         LGT SNOW  32  30  93 SE8       30.01F VSB 3/4 WCI  25
JANESVILLE     LGT SNOW  32  32 100 SE12      30.05F VSB 3/4 WCI  23
$$

WIZ051-052-058>065-066-070>072-041800-
SOUTHEAST WISCONSIN

CITY           SKY/WX    TMP DP  RH WIND       PRES   REMARKS
MILWAUKEE      FLURRIES  37  28  70 SE5       30.05F WCI  33
WAUKESHA       LGT SNOW  28  27  93 SE6       30.06F VSB 1   WCI  22
MILWAUKEE/TIMM LGT SNOW  32  27  80 CALM      30.06F
RACINE         CLOUDY    36  28  73 SE5       30.07F WCI  32
BURLINGTON     LGT SNOW  31  30  96 CALM      30.05F VSB 1
KENOSHA        LGT SNOW  33  29  85 SE3       30.05F VSB 3/4
FOND DU LAC    LGT SNOW  31  28  89 S7        30.03F VSB 1   WCI  24
SHEBOYGAN      LGT SNOW  31  29  92 S7        30.06F FOG     WCI  24
WEST BEND      SNOW      30  30 100 SE5       30.04F VSB 1/2 WCI  25
JUNEAU         LGT SNOW  30  29  94 SE9       30.04F WCI  22
$$

LSZ147-162-041800-
LAKE SUPERIOR

STATION/POSITION TIME  TEMP    WIND        PRES    WAVE
                       AIR SEA DIR/SP/G            HT/PER
                 (UTC) (F)     (DEG/KT/KT) (MB)    (FT/S)
DEVILS ISLAND    1700   32     150/  7/ 10 1014.4F
PORT WING        1640   32     150/  5/ 12 1013.2F
SAXON HARBOR     1640   33     160/  6/ 10 1013.9F
$$

LMZ867-665-643>646-041800-
LAKE MICHIGAN

STATION/POSITION TIME  TEMP    WIND        PRES    WAVE
                       AIR SEA DIR/SP/G            HT/PER
                 (UTC) (F)     (DEG/KT/KT) (MB)    (FT/S)
CHAMBERS ISLAND  1640   34     160/  5/  9 1017.9F
NORTHPORT PIER   1640   33     200/  2/  6 1018.6F
SISTER BAY       1638   33     210/  7/ 10   N/A
ALGOMA LAKESHORE 1651          220/  6/  7   N/A
KEWAUNEE LAKESHO 1648   31     210/  4/  5 1018.0F
SHEBOYGAN LAKESH 1700   32     230/  4/  4 1018.3F
PORT WASHINGTON  1640   33     180/  4/  6 1019.3F
MILWAUKEE LAKESH 1650   36     130/  9/ 11   N/A
S MID LAKE BUOY  1650   38 48  140/ 14/ 16 1018.4F   1/ 3
KENOSHA   LAKESH 1700   35     140/  8/ 10 1017.6
$$

TC  - TEMPERATURE IN CELSIUS
VSB - VISIBILITY IN STATUTE MILES
WCI - WIND CHILL INDEX
HX  - HEAT INDEX





USA.gov is the U.S. government's official web portal to all federal, state and local government web resources and services.